#timestamp,LO_Frequency,Hit,StdDev 
1582552815.7,286047005.8,N
1582552835.6,286047002.0,N
1582552855.4,286047000.1,N
1582552875.3,286047001.1,N
1582552895.1,286047005.3,N
1582552896.0,286047005.3,N
1582552915.8,286047003.6,N
1582552935.7,286047007.4,N
1582552955.5,286047012.8,N
1582552975.3,286047012.0,N
1582552995.2,286047012.5,N
1582553015.0,286047022.6,N
1582553015.9,286047022.6,N
1582553035.8,286047029.4,N
1582553055.6,286047027.7,N
1582553075.4,286047024.9,N
1582553095.3,286047024.4,N
1582553115.1,286047019.4,N
1582553135.8,286047019.5,N
1582553155.7,286047024.5,N
1582553175.5,286047021.5,N
1582553195.4,286047026.2,Y
1582553215.2,286047014.1,P
1582553235.0,286047017.8,P
1582553235.9,286047017.8,P
1582553255.8,286047017.6,Y
1582553275.6,286047011.1,P
1582553295.5,286047009.8,P
1582553315.3,286047010.2,P
1582553335.1,286047003.1,N
1582553355.9,286046999.1,N
1582553375.7,286046995.5,N
1582553395.5,286046995.8,N
1582553415.4,286046995.8,N
1582553435.2,286047000.8,N
1582553455.1,286047000.6,N
1582553456.0,286047000.6,N
1582553475.8,286046997.3,N
1582553495.6,286046996.6,N
1582553515.5,286046990.2,N
1582553535.3,286046995.8,N
1582553555.1,286046999.3,N
1582553575.9,286047000.0,N
1582553595.7,286047007.5,N
1582553615.6,286047002.5,N
1582553635.4,286047006.6,N
1582553655.2,286047012.2,N
1582553675.1,286047012.0,N
1582553676.0,286047012.0,N
1582553695.8,286047012.2,N
1582553715.6,286047018.2,N
1582553735.5,286047018.5,N
1582553755.3,286047015.3,N
1582553775.2,286047014.4,N
1582553795.9,286047010.4,N
1582553815.7,286047010.5,N
1582553835.6,286047011.9,N
1582553855.4,286047011.2,N
1582553875.2,286047009.9,N
1582553895.1,286047015.2,N
1582553896.0,286047015.2,N
1582553915.8,286047010.8,N
1582553935.7,286047017.0,N
1582553955.5,286047026.7,Y
1582553975.3,286047018.5,P
1582553995.2,286047016.2,N
1582554015.0,286047015.5,P
1582554015.9,286047015.5,Y
1582554035.7,286047002.6,P
1582554055.6,286047009.7,N
1582554075.4,286047013.6,N
1582554095.3,286047007.9,N
1582554115.1,286047003.2,N
1582554116.0,286047003.2,N
1582554135.8,286047002.3,N
1582554155.7,286047000.6,N
1582554175.5,286047005.2,N
1582554195.3,286047007.5,N
1582554215.2,286047004.7,N
1582554235.0,286047004.9,N
1582554235.9,286047004.9,N
1582554255.8,286046996.3,N
1582554275.6,286046991.3,N
1582554295.4,286046995.8,N
1582554315.3,286046997.4,N
1582554335.1,286046999.3,N
1582554355.9,286047000.2,N
1582554375.7,286046998.2,N
1582554395.5,286046997.7,N
1582554415.4,286046999.7,N
1582554435.2,286047005.5,N
1582554455.1,286047009.0,N
1582554456.0,286047009.0,N
1582554475.8,286047013.8,N
1582554495.6,286047010.9,N
1582554515.5,286047016.3,N
1582554535.3,286047028.8,Y
1582554555.2,286047022.3,P
1582554575.9,286047013.2,N
1582554595.7,286047013.4,N
1582554615.6,286047019.2,Y
1582554635.4,286047007.2,P
1582554655.2,286047004.7,N
1582554675.1,286047009.5,N
1582554676.0,286047009.5,N
1582554695.8,286047012.1,Y
1582554715.7,286047002.8,P
1582554735.5,286046999.0,N
1582554755.3,286047002.7,N
1582554775.2,286046995.1,N
1582554795.0,286047009.2,N
1582554795.9,286047009.2,N
1582554815.7,286047010.3,N
1582554835.6,286047016.9,Y
1582554855.4,286047003.5,P
1582554875.3,286047004.6,P
1582554895.1,286047010.0,P
1582554915.8,286046998.1,N
1582554935.7,286046998.2,N
1582554955.5,286046998.6,N
1582554975.4,286047004.2,N
1582554995.2,286047003.3,N
1582555015.0,286046996.6,N
1582555015.9,286046996.6,N
1582555035.8,286046998.5,N
1582555055.6,286047004.5,N
1582555075.4,286047006.5,N
1582555095.3,286047007.9,N
1582555115.1,286047010.6,N
1582555135.9,286047009.4,N
1582555155.7,286047018.3,Y
1582555175.5,286047011.9,P
1582555195.4,286047014.1,P
1582555215.2,286047011.7,N
1582555235.1,286047017.0,Y
1582555236.0,286047017.0,P
1582555255.8,286047007.0,N
1582555275.6,286047008.3,N
1582555295.5,286047014.3,Y
1582555315.3,286047001.9,P
1582555335.1,286047004.0,N
1582555355.9,286047001.2,N
1582555375.7,286046997.9,N
1582555395.6,286046995.1,N
1582555415.4,286047001.8,N
1582555435.2,286047002.2,N
1582555455.1,286046994.8,N
1582555456.0,286046994.8,N
1582555475.8,286046991.7,N
1582555495.6,286046988.0,N
1582555515.5,286046988.0,N
1582555535.3,286046989.9,N
1582555555.2,286046988.8,N
1582555575.9,286046986.9,N
1582555595.7,286046987.7,N
1582555615.6,286046990.3,N
1582555635.4,286046999.0,N
1582555655.2,286046997.7,N
1582555675.1,286046993.1,N
1582555676.0,286046993.1,N
1582555695.8,286046999.2,N
1582555715.7,286047003.6,N
1582555735.5,286046998.1,N
1582555755.3,286046998.4,N
1582555775.2,286046997.0,N
1582555795.0,286046998.6,N
1582555795.9,286046998.6,N
1582555815.7,286046996.0,N
1582555835.6,286046988.2,N
1582555855.4,286046991.6,N
1582555875.3,286046998.9,N
1582555895.1,286047000.3,N
1582555896.0,286047000.3,N
1582555915.8,286046997.6,N
1582555935.7,286047001.9,N
1582555955.5,286047002.2,N
1582555975.4,286046992.2,N
1582555995.2,286046990.7,N
1582556015.0,286046990.2,N
1582556015.9,286046990.2,N
1582556035.8,286046990.8,N
1582556055.6,286046989.3,N
1582556075.4,286046987.2,N
1582556095.3,286046989.3,N
1582556115.1,286046991.5,N
1582556135.9,286046991.2,N
1582556155.7,286046995.4,N
1582556175.5,286046996.5,N
1582556195.4,286046989.8,N
1582556215.2,286046983.0,Y
1582556235.1,286046983.2,P
1582556236.0,286046983.2,N
1582556255.8,286046979.7,P
1582556275.6,286046974.4,Y
1582556295.5,286046996.9,P
1582556315.3,286046994.0,N
1582556335.1,286046995.9,N
1582556355.9,286047002.0,N
1582556375.7,286047004.2,N
1582556395.6,286046998.3,N
